TimeCST,TemperatureF,Dew PointF,Humidity,Sea Level PressureIn,VisibilityMPH,Wind Direction,Wind SpeedMPH,Gust SpeedMPH,PrecipitationIn,Events,Conditions,WindDirDegrees,DateUTC
12:53 AM,35.1,30.0,82,30.29,10.0,East,5.8,-,N/A,,Clear,80,2012-01-25 06:53:00
1:53 AM,34.0,28.9,82,30.26,9.0,ENE,6.9,-,N/A,,Clear,70,2012-01-25 07:53:00
2:53 AM,33.1,28.9,85,30.27,8.0,ENE,6.9,-,N/A,,Clear,60,2012-01-25 08:53:00
3:53 AM,34.0,28.9,82,30.22,8.0,ENE,12.7,-,N/A,,Partly Cloudy,70,2012-01-25 09:53:00
4:53 AM,35.1,28.9,78,30.25,8.0,East,8.1,-,N/A,,Clear,100,2012-01-25 10:53:00
5:53 AM,35.1,30.0,82,30.24,8.0,ENE,6.9,-,N/A,,Overcast,60,2012-01-25 11:53:00
6:53 AM,35.1,30.9,85,30.28,6.0,Calm,Calm,-,0.02,Rain,Light Rain,0,2012-01-25 12:53:00
7:53 AM,34.0,32.0,92,30.26,4.0,North,6.9,-,0.05,Rain,Light Rain,350,2012-01-25 13:53:00
8:09 AM,33.8,32.0,93,30.26,2.5,Calm,Calm,-,0.01,Rain,Light Rain,0,2012-01-25 14:09:00
8:37 AM,35.6,32.0,87,30.25,3.0,NNE,10.4,-,0.04,Rain,Light Rain,20,2012-01-25 14:37:00
8:53 AM,35.1,32.0,89,30.24,3.0,NE,11.5,-,0.04,Rain,Light Rain,40,2012-01-25 14:53:00
9:04 AM,35.6,33.8,93,30.20,2.5,NNE,15.0,-,0.01,Rain,Light Rain,30,2012-01-25 15:04:00
9:12 AM,35.6,33.8,93,30.18,3.0,NE,13.8,-,0.01,,Overcast,40,2012-01-25 15:12:00
9:53 AM,36.0,33.1,89,30.21,4.0,SSE,5.8,-,0.01,,Overcast,150,2012-01-25 15:53:00
10:53 AM,37.0,34.0,89,30.22,3.0,North,8.1,-,0.00,Rain,Light Rain,10,2012-01-25 16:53:00
11:30 AM,37.4,35.6,93,30.20,1.8,NE,4.6,-,0.03,Rain,Rain,50,2012-01-25 17:30:00
11:43 AM,37.4,35.6,93,30.19,2.5,NE,5.8,-,0.06,Rain,Rain,40,2012-01-25 17:43:00
11:53 AM,37.0,35.1,93,30.22,3.0,Calm,Calm,-,0.08,Rain,Light Rain,0,2012-01-25 17:53:00
12:02 PM,37.4,35.6,93,30.19,1.8,NNE,4.6,-,0.01,Rain,Rain,20,2012-01-25 18:02:00
12:23 PM,37.4,35.6,93,30.16,2.0,NE,6.9,-,0.06,Rain,Light Rain,40,2012-01-25 18:23:00
12:40 PM,37.4,35.6,93,30.14,1.2,NE,9.2,-,0.09,Rain,Rain,40,2012-01-25 18:40:00
12:53 PM,37.4,35.6,93,30.13,1.5,NE,8.1,-,N/A,Rain,Light Rain,50,2012-01-25 18:53:00
1:43 PM,37.4,35.6,93,30.12,2.0,NE,6.9,-,0.11,Rain,Light Rain,50,2012-01-25 19:43:00
1:53 PM,37.9,36.0,93,30.12,2.0,ENE,8.1,-,0.12,Rain,Rain,70,2012-01-25 19:53:00
2:13 PM,37.4,35.6,93,30.11,4.0,ENE,10.4,-,N/A,,Overcast,70,2012-01-25 20:13:00
2:51 PM,37.4,35.6,93,30.10,5.0,ENE,10.4,-,0.02,,Overcast,60,2012-01-25 20:51:00
2:53 PM,37.9,36.0,93,30.11,5.0,ENE,10.4,-,0.02,,Overcast,70,2012-01-25 20:53:00
3:53 PM,37.9,36.0,93,30.08,6.0,ENE,9.2,-,N/A,,Overcast,70,2012-01-25 21:53:00
4:18 PM,37.4,35.6,93,30.06,6.0,East,12.7,-,N/A,,Overcast,80,2012-01-25 22:18:00
4:53 PM,37.9,36.0,93,30.07,6.0,East,9.2,-,N/A,,Overcast,80,2012-01-25 22:53:00
5:28 PM,37.4,35.6,93,30.05,7.0,East,10.4,-,N/A,,Overcast,80,2012-01-25 23:28:00
5:53 PM,37.9,36.0,93,30.06,6.0,ENE,8.1,-,N/A,,Overcast,70,2012-01-25 23:53:00
6:53 PM,37.9,36.0,93,30.05,5.0,ENE,9.2,-,N/A,,Overcast,70,2012-01-26 00:53:00
7:21 PM,39.2,35.6,87,30.03,5.0,ENE,9.2,-,N/A,,Overcast,70,2012-01-26 01:21:00
7:33 PM,37.4,35.6,93,30.03,5.0,ENE,10.4,-,N/A,,Overcast,70,2012-01-26 01:33:00
7:42 PM,39.2,35.6,87,30.03,5.0,ENE,12.7,-,N/A,,Overcast,70,2012-01-26 01:42:00
7:49 PM,39.2,35.6,87,30.02,5.0,ENE,9.2,-,N/A,,Overcast,60,2012-01-26 01:49:00
7:53 PM,39.0,36.0,89,30.03,5.0,ENE,11.5,-,N/A,,Overcast,70,2012-01-26 01:53:00
8:44 PM,39.2,35.6,87,29.98,5.0,East,12.7,-,N/A,,Overcast,80,2012-01-26 02:44:00
8:53 PM,39.2,35.6,87,29.97,5.0,East,13.8,-,N/A,,Mostly Cloudy,90,2012-01-26 02:53:00
9:53 PM,39.9,37.0,89,29.98,5.0,NNE,9.2,-,N/A,,Mostly Cloudy,30,2012-01-26 03:53:00
10:53 PM,39.9,37.9,93,29.93,5.0,ENE,8.1,-,0.00,Rain,Light Rain,70,2012-01-26 04:53:00
11:53 PM,39.9,37.9,93,29.88,4.0,ESE,8.1,-,0.02,Rain,Light Rain,110,2012-01-26 05:53:00